Regional Weather Roundup
Issued by NWS Boston, MA

Home | Current Version | Previous Version | Text Only | Print | Product List | Glossary On
Versions: 1 2 3 4 5 6 7 8 9 10 11 12 13 14 15 16 17 18 19 20 21 22 23 24 25 26 27
000
ASUS41 KBOX 181810
RWRBOX

REGIONAL WEATHER ROUNDUP
NATIONAL WEATHER SERVICE TAUNTON MA
100 PM EST MON DEC 18 2017

NOTE:  "FAIR" INDICATES FEW OR NO CLOUDS BELOW 12,000 FEET WITH NO
SIGNIFICANT WEATHER AND/OR OBSTRUCTIONS TO VISIBILITY.

MAZALL-181900-
EASTERN MASSACHUSETTS

CITY           SKY/WX    TMP DP  RH WIND       PRES   REMARKS
BOSTON         FLURRIES  31  19  61 CALM      30.05F
6HR MIN TEMP:  25; 6HR MAX TEMP:  31; 6HR PCP: TRACE;

BEVERLY        LGT SNOW  31  22  69 VRB5      30.04F WCI  26
LAWRENCE       LGT SNOW  28  19  69 SW6       30.06F VSB 3/4 WCI  22
BEDFORD        LGT SNOW  27  16  63 CALM      30.03F FOG
BLUE HILL        N/A     31  18  58 S7        30.00F WCI  24
NORWOOD        CLOUDY    34  21  59 S5        30.05F WCI  30
MARSHFIELD     CLOUDY    36  23  60 CALM      30.04F
PLYMOUTH       CLOUDY    37  23  56 S3        30.03F
TAUNTON        CLOUDY    37  25  61 CALM      30.03F
NEW BEDFORD    CLOUDY    37  31  78 SE6       30.03F
$$

MAZALL-181900-
CAPE COD AND THE ISLANDS

CITY           SKY/WX    TMP DP  RH WIND       PRES   REMARKS
FALMOUTH       CLOUDY    36  25  64 SE8       30.04F WCI  29
HYANNIS        CLOUDY    37  23  56 S5        30.03F
CHATHAM        CLOUDY    38  27  64 S3        30.05F
PROVINCETOWN   LGT RAIN  35  24  64 SE6       30.05F WCI  30
NANTUCKET      CLOUDY    38  30  73 SE9       30.04F WCI  31
MARTHAS VNYRD  CLOUDY    37  28  70 SE8       30.04F WCI  31
$$

MAZALL-181900-
CENTRAL AND WESTERN MASSACHUSETTS

CITY           SKY/WX    TMP DP  RH WIND       PRES   REMARKS
WORCESTER      CLOUDY    30  20  66 SW7       29.98F WCI  23
6HR MIN TEMP:  21; 6HR MAX TEMP:  30;

FITCHBURG      LGT SNOW  28  20  71 CALM      30.03F
ORANGE         NOT AVBL
SPRINGFIELD    CLOUDY    30  15  53 SE6       30.00F WCI  24
WESTFIELD      CLOUDY    30  17  58 SW3       30.01F
NORTH ADAMS    FLURRIES  30  26  85 E8        29.97F WCI  22
PITTSFIELD     CLOUDY    30  24  78 CALM      29.94F
$$

RIZALL-181900-
RHODE ISLAND

CITY           SKY/WX    TMP DP  RH WIND       PRES   REMARKS
PROVIDENCE     CLOUDY    35  24  64 N5        30.04F WCI  31
6HR MIN TEMP:  27; 6HR MAX TEMP:  35;

NEWPORT        CLOUDY    40  34  79 SE7       30.02F
BLOCK ISLAND   LGT RAIN  43  41  93 S8        30.01F FOG
SMITHFIELD     CLOUDY    32  19  58 CALM      30.02F
WESTERLY       CLOUDY    39  30  70 N5        30.03F
$$

CTZALL-181900-
CONNECTICUT

CITY           SKY/WX    TMP DP  RH WIND       PRES   REMARKS
BRADLEY INTL   CLOUDY    31  17  56 SE6       30.02F WCI  25
6HR MIN TEMP:  26; 6HR MAX TEMP:  31;

HARTFORD       FLURRIES  32  18  56 CALM      30.04F
BRIDGEPORT     CLOUDY    40  28  62 N7        30.02F
DANBURY        CLOUDY    36  25  64 CALM      30.02F
GROTON         CLOUDY    37  30  75 N3        30.02F HAZE
NEW HAVEN      CLOUDY    38  24  57 N6        30.01F
CHESTER        CLOUDY    36  30  80 CALM      30.01F
MERIDEN        CLOUDY    34  20  56 CALM      30.03F
WILLIMANTIC    LGT RAIN  34  26  72 CALM      30.04F
OXFORD         CLOUDY    34  26  72 N3        30.00F
$$

MEZ002-015-021-024-NHZ003-005-008-011-012-014-VTZ005-008-181900-
NORTHERN NEW ENGLAND

CITY           SKY/WX    TMP DP  RH WIND       PRES   REMARKS
PORTLAND ME    LGT SNOW  23  19  85 SW3       30.04F VSB 1
6HR MIN TEMP:  13; 6HR MAX TEMP:  23; 6HR PCP:  0.01;

BANGOR ME      LGT SNOW  15  10  80 NW6       30.05F VSB 3/4 WCI   6
CONCORD NH     LGT SNOW  21  17  84 SE5       30.01F FOG     WCI  15
MANCHESTER NH  LGT SNOW  23  18  81 S3        30.01F VSB 3/4
NASHUA NH      LGT SNOW  27  20  75 SE3       30.04F FOG
PORTSMOUTH NH  LGT SNOW  23  15  70 W5        30.04F VSB 3/4 WCI  17
JAFFREY NH     LGT SNOW  25  22  88 S7        29.96F FOG     WCI  17
KEENE NH       LGT SNOW  25  19  80 CALM      30.00F FOG
BURLINGTON VT  LGT SNOW  29  23  78 S13       29.91F WCI  19
MT. WASHINGTON SNOW      18  18 100 W54G63      N/A  VSB 0   WCI  -7
$$

NYZ052-076-181900-
EASTERN NEW YORK

CITY           SKY/WX    TMP DP  RH WIND       PRES   REMARKS
ALBANY         CLOUDY    33  25  72 S9        29.97F WCI  25
6HR MIN TEMP:  20; 6HR MAX TEMP:  33; 6HR PCP: TRACE;

NEW YORK CITY  PTSUNNY   42  35  76 NE5       30.01F
6HR MIN TEMP:  36; 6HR MAX TEMP:  43;

$$

ANZALL-181900-
MARINE OBSERVATIONS

STATION/POSITION TIME  TEMP    WIND        PRES    VSBY  WAVE
                       AIR SEA DIR/SP/G                  HT/PER
                 (UTC) (F)     (DEG/KT/KT) (MB)    (MI)  (FT/S)
BOSTON BUOY      1650   35 46  160/  8/ 10 1017.6          1/ 6
BUZZARDS BAY     1700   40     140/ 13/ 17 1017.9F
NANTUCKET SOUND  1750   37 40  140/  8/ 10 1017.4F         1
MASS BAY-STELLWA 1704   34 46  190/  8/ 12 1017.4F         1/ 3
ISLE OF SHOALS   1700   27     250/  3/  3 1018.1F
S OF BLOCK IS    1743      51                N/A           3/ 4
$$

......................KEY.........................
  SKY/WX - SKY CONDITION/PRESENT WEATHER
  TMP    - TEMPERATURE IN FAHRENHEIT
  DWPT   - DEWPOINT IN FAHRENHEIT
  RH     - RELATIVE HUMIDITY IN PERCENT
  WIND   - DIRECTION AND SPEED IN MPH
  PRES   - MEAN SEA LEVEL PRESSURE IN INCHES OF HG
  WCI    - WIND CHILL INDEX
  VSB    - VISIBILITY IN MILES
  HX     - HEAT INDEX
  TC     - TEMPERATURE IN CELSIUS
  VRB    - VARIABLE WIND DIRECTION
  N/A    - NOT AVAILABLE




USA.gov is the U.S. government's official web portal to all federal, state and local government web resources and services.